{"data":{"norad_id":69554,"epoch":"2026-09-19T00:42:07.682976Z","epoch_age_seconds":148698,"freshness":"FRESH","line1":"1 69554U 26135J   26262.02925559  .00013678  00000+0  42508-3 0  9997","line2":"2 69554  97.2845 289.7204 0001787  85.0868 275.0578 15.33454847 14773","mean_motion":15.33454847,"eccentricity":0.0001787,"inclination_deg":97.2845,"raan_deg":289.7204,"arg_perigee_deg":85.0868,"mean_anomaly_deg":275.0578,"bstar":0.00042508,"rev_number":1477,"period_min":93.905601643059,"perigee_km":464.29091647916,"apogee_km":466.73683730256,"semimajor_km":6843.6508768909,"source":"CELESTRAK","updated_at":"2026-09-20T09:00:44.243219Z"}}